Tracking 28895 objects as of 27-May-2024
HD Live streaming from Space Station
objects crossing your sky now

SCOUT G-1 DEB

Track SCOUT G-1 DEB now!
10-day predictions


NORAD ID: 19181
Int'l Code: 1988-033G
Perigee: 996.1 km
Apogee: 1,374.4 km
Inclination: 89.8 °
Period: 108.9 minutes
Semi major axis: 7556 km
RCS: 0.0549 m2 (small)
Launch date: April 26, 1988
Source: United States (US)
Launch site: AIR FORCE WESTERN TEST RANGE (AFWTR)

Note: This is SATELLITE DEBRIS
Your satellite tracking list
Your tracking list is empty




NASA's NSSDC Master Catalog

Two Line Element Set (TLE):
1 19181U 88033G   24147.37915566  .00000169  00000-0  32836-3 0  9993
2 19181  89.8435 289.3869 0250345  21.5326  38.8938 13.21735147737978
Source of the keplerian elements: AFSPC